Regional Weather Roundup
Issued by NWS

Home | Current Version | Previous Version | Text Only | Print | Product List | Glossary Off
Versions: 1 2 3 4 5 6 7 8 9 10 11 12 13 14 15 16 17 18 19 20 21 22 23 24 25 26 27 28 29 30 31 32 33 34 35 36 37 38 39 40 41 42 43 44 45 46 47 48 49 50

382
ASUS45 KPSR 241310
RWRAZ

ARIZONA HOURLY REGIONAL WEATHER ROUNDUP
NATIONAL WEATHER SERVICE PHOENIX AZ
600 AM MST TUE MAY 24 2016

NOTE: FAIR INDICATES FEW OR NO CLOUDS BELOW 12,000 FEET WITH NO
SIGNIFICANT WEATHER AND/OR OBSTRUCTIONS TO VISIBILITY.

AZZ001>003-036-241400-
NORTHWEST ARIZONA

CITY           SKY/WX    TMP DP  RH WIND       PRES   REMARKS
BULLHEAD CITY  CLEAR     68  37  32 S5        29.78R
KINGMAN        CLEAR     55  29  36 SE7       29.83R
$$

AZZ004>008-015-016-018-241400-
NORTH CENTRAL ARIZONA

CITY           SKY/WX    TMP DP  RH WIND       PRES   REMARKS
GRAND CANYON   PTCLDY    34  20  56 CALM      29.98R
WILLIAMS       CLEAR     46  21  36 S7G16     30.04R
PRESCOTT       CLEAR     49  27  42 S5        29.94R
FLAGSTAFF      CLEAR     33  23  66 CALM      29.99R
PAYSON         CLEAR     48  19  32 E3        30.00R
PAGE           PTCLDY    62  22  21 S8        29.85R
$$

AZZ009>014-017-241400-
NORTHEAST ARIZONA

CITY           SKY/WX    TMP DP  RH WIND       PRES   REMARKS
WINSLOW        CLEAR     43  22  43 E3        29.96R
SAINT JOHNS    CLEAR     46  29  51 SE5       30.00R
WINDOW ROCK    CLEAR     36  21  54 CALM      30.05R
SHOW LOW       CLEAR     45  21  39 CALM      30.02R
$$

AZZ023-241400-
GREATER PHOENIX AREA

CITY           SKY/WX    TMP DP  RH WIND       PRES   REMARKS
PHOENIX        PTCLDY    69  31  24 E5        29.83R
BUCKEYE        CLEAR     63  28  27 CALM      29.86R
GLENDALE       CLEAR     70  32  24 CALM      29.85
LUKE AFB       CLEAR     67  32  27 S2        29.83R
DEER VALLEY    CLEAR     65  29  25 E7        29.85R
SCOTTSDALE     CLEAR     65  31  28 E3        29.87R
MESA-FALCON    CLEAR    N/A N/A N/A NE6       29.84R
MESA-GATEWAY   CLEAR     61  30  31 N7        29.86R
CHANDLER       CLEAR     64  32  29 CALM      29.85
$$

AZZ027-028-241400-
SOUTHWEST MARICOPA COUNTY AND PINAL COUNTY

CITY           SKY/WX    TMP DP  RH WIND       PRES   REMARKS
CASA GRANDE    CLEAR     64  28  25 CALM      29.87R
GILA BEND      FAIR      63  29  28 SE6       29.83R
$$

AZZ503-504-507>509-241400-
SOUTHEAST ARIZONA

CITY           SKY/WX    TMP DP  RH WIND       PRES   REMARKS
TUCSON         CLEAR     61  25  25 SE5       29.92R
DAVIS-MONTHAN  CLEAR     59  26  28 SE6       29.91R
RYAN FIELD     CLEAR     57  21  24 E5        29.92
NOGALES        CLEAR     58  23  26 S7        29.97R
SIERRA VISTA   CLEAR     62  12  14 VRB3      30.01R
DOUGLAS        CLEAR     67  28  23 SE5       30.00R
SAFFORD        CLEAR     56  23  27 E5        29.90R
$$

AZZ020-021-025-026-031-241400-
SOUTHWEST ARIZONA

CITY           SKY/WX    TMP DP  RH WIND       PRES   REMARKS
YUMA           CLEAR     63  37  38 NW12G22   29.84R
$$

CAZ031-033-041-043-047-048-061-241400-
SOUTHERN CALIFORNIA

CITY           SKY/WX    TMP DP  RH WIND       PRES   REMARKS
DOWNTOWN L.A.  CLOUDY    59  52  77 CALM      29.93R
L.A. AIRPORT   MOCLDY    58  52  80 VRB3      29.93S
SAN DIEGO      MOCLDY    63  48  58 W7        29.97R
BURBANK        MOCLDY    57  50  77 S3        29.92S
ONTARIO        MOCLDY    56  48  74 W6        29.93S
RIVERSIDE      CLOUDY    58  47  66 CALM      29.94R
PALM SPRINGS   PTCLDY    64  39  39 W6        29.83R
EL CENTRO NAS  PTCLDY    63  41  44 W26G37    29.85R
IMPERIAL       CLEAR     63  42  46 W25G32    29.81F
BLYTHE         CLEAR     64  47  53 SW7       29.79R
NEEDLES        CLEAR     71  37  28 W6        29.77R
$$

NVZ020-UTZ003-241400-
SOUTHERN NEVADA-UTAH

CITY           SKY/WX    TMP DP  RH WIND       PRES   REMARKS
LAS VEGAS      PTCLDY    62  37  39 E6        29.71S
SALT LAKE CITY MOCLDY    55  40  56 E12       29.79F
$$

NMZ009-TXZ055-241400-
NEW MEXICO-WEST TEXAS

CITY           SKY/WX    TMP DP  RH WIND       PRES   REMARKS
ALBUQUERQUE    SUNNY     57  24  28 NE5       30.00R
EL PASO        MOSUNNY   67  23  19 S6        29.97R
$$


........................KEY........................
SKY/WX - SKY CONDITION/WEATHER
TMP    - TEMPERATURE IN FAHRENHEIT
DP     - DEW POINT IN FAHRENHEIT
RH     - RELATIVE HUMIDITY IN PERCENT
WIND   - DIRECTION AND SPEED IN MILES PER HOUR (MPH)
VRB    - VARIABLE WIND DIRECTION
PRES   - MEAN SEA LEVEL PRESSURE IN INCHES OF MERCURY
         F - FALLING PRESSURE   R - RISING PRESSURE
         S - STEADY PRESSURE
VSB    - VISIBILITY IN MILES
HX     - HEAT INDEX IN FAHRENHEIT
WCI    - WIND CHILL INDEX IN FAHRENHEIT
TC     - TEMPERATURE IN CELSIUS WHICH IS ALSO KNOWN AS
         TEMPERATURE IN CENTIGRADE
AFB    - AIR FORCE BASE
         LUKE AFB IS LUKE AIR FORCE BASE
         DAVIS-MONTHAN IS DAVIS-MONTHAN AIR FORCE BASE
NAS    - NAVAL AIR STATION
         EL CENTRO NAS IS EL CENTRO NAVAL AIR STATION
N/A    - NOT AVAILABLE





USA.gov is the U.S. government's official web portal to all federal, state and local government web resources and services.